Simultaneous Nadir Overpasses (SNOs) Predictions

Prediction of SNOs between METOP-A and TERRA Satellite Orbit:

Table of predicted SNOs for the next 14.0 days since TLE Epoch: 7/31/2021
Index Date (METOP-A) Time (METOP-A) Lat,Lon (METOP-A) SZA (METOP-A ) Date (TERRA) Time (TERRA) Lat,Lon (TERRA) SZA (TERRA ) Distance(km) Time Diff (sec)
1 08/02/2021 18:58:31 81.28, -58.98 66.27 08/02/2021 18:59:05 81.29, -59.15 66.28 2.94 34
2 08/02/2021 19:49:11 -81.27, 108.51 113.71 08/02/2021 19:48:32 -81.29, 108.40 113.73 2.30 39
3 08/05/2021 14:32:53 81.30, 6.95 66.99 08/05/2021 14:33:18 81.28, 7.12 67.00 3.30 25
4 08/05/2021 15:23:32 -81.27, 174.86 112.96 08/05/2021 15:22:45 -81.28, 174.69 113.00 2.93 47
5 08/08/2021 10:07:13 81.28, 73.64 67.80 08/08/2021 10:07:30 81.29, 73.72 67.82 1.66 17
6 08/08/2021 10:57:53 -81.27,-118.80 112.18 08/08/2021 10:56:57 -81.29,-118.68 112.18 2.58 56
7 08/11/2021 05:41:33 81.29, 139.93 68.61 08/11/2021 05:41:42 81.28, 139.92 68.61 1.00 9
8 08/11/2021 06:32:13 -81.27, -52.48 111.36 08/11/2021 06:31:09 -81.28, -52.46 111.39 0.26 64
9 08/14/2021 00:25:18 -81.35, 37.06 110.70 08/14/2021 00:26:32 -81.19, 37.33 110.76 18.55 74
10 08/14/2021 01:15:53 81.27,-153.41 69.49 08/14/2021 01:15:54 81.28,-153.55 69.48 2.57 1



Historial Predications of SNOs between METOP-A and TERRA
